PAL912 RKSI-RPLL

Flight info

Callsign PAL912
Flight time 3h 38m
Altitude 38000
Route BOPTA2Y BOPTA Z51 BEDES Y711 MUGUS Y742 SALMI Q11 WAGON B591 JICHI Q11 POTIB M646 LAO B462 CAB CAB5R
Aircraft A35K/H-SDE2E3GHIJ3J4J5LM1ORWXY/LB1D1

Departure

Time 2026-05-04 14:19
Airport Incheon International Airport (RKSI)

Arrival

Time 2026-05-04 17:58
Airport Ninoy Aquino International Airport (RPLL)
Time Latitude Longitude Altitude Speed Heading
2026-05-04 13:50 37.44915 126.44641 37 ft 0 kts 36°
2026-05-04 14:07 37.44904 126.44631 38 ft 2 kts 34°
2026-05-04 14:08 37.44890 126.44620 38 ft 2 kts 30°
2026-05-04 14:08 37.44875 126.44610 37 ft 2 kts 21°
2026-05-04 14:08 37.44859 126.44604 37 ft 2 kts 14°
2026-05-04 14:08 37.44845 126.44596 37 ft 2 kts 61°
2026-05-04 14:09 37.44844 126.44563 35 ft 2 kts 114°
2026-05-04 14:09 37.44847 126.44554 36 ft 1 kts 122°
2026-05-04 14:10 37.44845 126.44557 34 ft 0 kts 122°
2026-05-04 14:11 37.44845 126.44558 34 ft 0 kts 125°
2026-05-04 14:14 37.44835 126.44575 38 ft 6 kts 128°
2026-05-04 14:15 37.44722 126.44599 38 ft 11 kts 189°
2026-05-04 14:15 37.44555 126.44527 38 ft 15 kts 232°
2026-05-04 14:16 37.44432 126.44310 38 ft 0 kts 235°
2026-05-04 14:16 37.44426 126.44300 38 ft 4 kts 234°
2026-05-04 14:17 37.44406 126.44117 39 ft 18 kts 324°
2026-05-04 14:17 37.44445 126.44084 39 ft 0 kts 324°
2026-05-04 14:18 37.44793 126.43769 39 ft 93 kts 324°
2026-05-04 14:19 37.46412 126.42311 582 ft 161 kts 322°
2026-05-04 14:19 37.47302 126.41509 1367 ft 161 kts 322°
2026-05-04 14:19 37.48173 126.40457 1778 ft 181 kts 307°
2026-05-04 14:19 37.48980 126.39163 2059 ft 200 kts 306°
2026-05-04 14:20 37.49871 126.37689 2392 ft 219 kts 303°
2026-05-04 14:20 37.50437 126.35894 2944 ft 228 kts 278°
2026-05-04 14:20 37.50542 126.33841 3421 ft 241 kts 271°
2026-05-04 14:21 37.50583 126.29519 4758 ft 251 kts 271°
2026-05-04 14:21 37.50623 126.27300 5447 ft 256 kts 272°
2026-05-04 14:21 37.50671 126.25035 6139 ft 260 kts 272°
2026-05-04 14:21 37.50718 126.22747 6810 ft 264 kts 271°
2026-05-04 14:22 37.50518 126.20430 7440 ft 269 kts 256°
2026-05-04 14:22 37.49713 126.18282 8098 ft 276 kts 234°
2026-05-04 14:22 37.48223 126.16751 8730 ft 283 kts 206°
2026-05-04 14:22 37.46292 126.16303 9364 ft 290 kts 176°
2026-05-04 14:23 37.43274 126.18116 10282 ft 303 kts 134°
2026-05-04 14:23 37.41325 126.20830 10663 ft 323 kts 138°
2026-05-04 14:23 37.39426 126.22448 10950 ft 337 kts 153°
2026-05-04 14:24 37.38024 126.23333 11128 ft 346 kts 155°
2026-05-04 14:24 37.35803 126.24659 11395 ft 360 kts 156°
2026-05-04 14:24 37.33488 126.26016 11693 ft 371 kts 155°
2026-05-04 14:24 37.31130 126.27408 12150 ft 376 kts 155°
2026-05-04 14:25 37.27979 126.29279 12845 ft 380 kts 155°
2026-05-04 14:25 37.23973 126.31665 13720 ft 385 kts 155°
2026-05-04 14:25 37.21548 126.33109 14203 ft 387 kts 155°
2026-05-04 14:26 37.19107 126.34573 14644 ft 390 kts 155°
2026-05-04 14:26 37.16649 126.36055 15101 ft 393 kts 155°
2026-05-04 14:26 37.14177 126.37540 15559 ft 396 kts 155°
2026-05-04 14:26 37.11675 126.39035 16012 ft 399 kts 155°
2026-05-04 14:27 37.09163 126.40531 16492 ft 402 kts 155°
2026-05-04 14:27 37.06627 126.42039 16961 ft 404 kts 154°
2026-05-04 14:27 37.04067 126.43559 17445 ft 407 kts 154°
2026-05-04 14:27 37.01498 126.45068 17917 ft 410 kts 155°
2026-05-04 14:28 36.98909 126.46598 18389 ft 412 kts 155°
2026-05-04 14:28 36.96311 126.48136 18796 ft 415 kts 154°
2026-05-04 14:28 36.93697 126.49688 19206 ft 417 kts 154°
2026-05-04 14:28 36.91065 126.51249 19618 ft 419 kts 154°
2026-05-04 14:29 36.85774 126.54378 20407 ft 424 kts 154°
2026-05-04 14:29 36.80393 126.57549 21225 ft 428 kts 154°
2026-05-04 14:30 36.77693 126.59139 21626 ft 430 kts 154°
2026-05-04 14:30 36.74925 126.60602 21996 ft 433 kts 161°
2026-05-04 14:30 36.68949 126.61442 22776 ft 437 kts 184°
2026-05-04 14:31 36.65948 126.61077 23147 ft 440 kts 187°
2026-05-04 14:31 36.59863 126.59902 23841 ft 445 kts 190°
2026-05-04 14:32 36.53732 126.58628 24515 ft 448 kts 190°
2026-05-04 14:32 36.50648 126.58011 24849 ft 449 kts 190°
2026-05-04 14:32 36.47546 126.57405 25187 ft 451 kts 190°
2026-05-04 14:32 36.44438 126.56820 25523 ft 453 kts 190°
2026-05-04 14:33 36.41312 126.56240 25867 ft 454 kts 190°
2026-05-04 14:33 36.38179 126.55662 26208 ft 456 kts 191°
2026-05-04 14:33 36.35070 126.55088 26570 ft 458 kts 191°
2026-05-04 14:33 36.31916 126.54505 26936 ft 459 kts 191°
2026-05-04 14:34 36.28706 126.53910 27310 ft 461 kts 191°
2026-05-04 14:34 36.25573 126.53328 27679 ft 463 kts 191°
2026-05-04 14:34 36.22375 126.52733 28066 ft 465 kts 192°
2026-05-04 14:34 36.19168 126.52137 28457 ft 467 kts 192°
2026-05-04 14:35 36.15952 126.51540 28841 ft 469 kts 192°
2026-05-04 14:35 36.12717 126.50939 29233 ft 471 kts 192°
2026-05-04 14:35 36.09472 126.50337 29610 ft 473 kts 192°
2026-05-04 14:35 36.06199 126.49731 29996 ft 475 kts 192°
2026-05-04 14:36 36.02924 126.49125 30347 ft 478 kts 192°
2026-05-04 14:36 35.99620 126.48515 30669 ft 480 kts 192°
2026-05-04 14:36 35.96314 126.47904 30985 ft 482 kts 192°
2026-05-04 14:36 35.92992 126.47292 31312 ft 483 kts 192°
2026-05-04 14:37 35.89655 126.46677 31621 ft 485 kts 192°
2026-05-04 14:37 35.86315 126.46063 32039 ft 484 kts 192°
2026-05-04 14:37 35.82984 126.45453 32512 ft 482 kts 193°
2026-05-04 14:37 35.79676 126.44847 32958 ft 480 kts 193°
2026-05-04 14:38 35.76416 126.44250 33406 ft 478 kts 193°
2026-05-04 14:38 35.73090 126.43640 33858 ft 476 kts 193°
2026-05-04 14:38 35.69816 126.43040 34278 ft 475 kts 193°
2026-05-04 14:38 35.66597 126.42451 34624 ft 474 kts 194°
2026-05-04 14:39 35.63332 126.41853 34952 ft 473 kts 194°
2026-05-04 14:39 35.60077 126.41256 35268 ft 473 kts 194°
2026-05-04 14:39 35.56824 126.40661 35588 ft 472 kts 194°
2026-05-04 14:40 35.50332 126.39475 36213 ft 471 kts 194°
2026-05-04 14:40 35.47085 126.38883 36521 ft 471 kts 194°
2026-05-04 14:40 35.43837 126.38291 36818 ft 471 kts 195°
2026-05-04 14:40 35.40594 126.37701 37117 ft 471 kts 195°
2026-05-04 14:41 35.37353 126.37112 37413 ft 470 kts 195°
2026-05-04 14:41 35.34119 126.36524 37711 ft 470 kts 195°
2026-05-04 14:41 35.27648 126.35349 38139 ft 472 kts 195°
2026-05-04 14:42 35.21150 126.34170 38149 ft 472 kts 195°
2026-05-04 14:42 35.14690 126.33002 38150 ft 472 kts 195°
2026-05-04 14:43 35.08195 126.31830 38154 ft 471 kts 195°
2026-05-04 14:43 35.01709 126.30660 38154 ft 471 kts 195°
2026-05-04 14:44 34.95219 126.29492 38156 ft 471 kts 195°
2026-05-04 14:44 34.88726 126.28325 38151 ft 471 kts 195°
2026-05-04 14:45 34.82247 126.27163 38154 ft 470 kts 195°
2026-05-04 14:45 34.75814 126.26010 38149 ft 470 kts 195°
2026-05-04 14:46 34.69358 126.24855 38155 ft 469 kts 195°
2026-05-04 14:46 34.62903 126.23703 38157 ft 468 kts 195°
2026-05-04 14:47 34.56456 126.22553 38158 ft 468 kts 195°
2026-05-04 14:47 34.50011 126.21405 38156 ft 467 kts 195°
2026-05-04 14:48 34.43578 126.20263 38161 ft 467 kts 195°
2026-05-04 14:48 34.37149 126.19122 38160 ft 466 kts 196°
2026-05-04 14:49 34.30731 126.17984 38158 ft 465 kts 196°
2026-05-04 14:49 34.24327 126.16851 38159 ft 465 kts 196°
2026-05-04 14:50 34.17967 126.15727 38159 ft 464 kts 196°
2026-05-04 14:50 34.11571 126.14599 38174 ft 464 kts 196°
2026-05-04 14:51 34.05182 126.13474 38164 ft 463 kts 196°
2026-05-04 14:51 33.98804 126.12352 38161 ft 463 kts 196°
2026-05-04 14:52 33.92434 126.11234 38168 ft 462 kts 196°
2026-05-04 14:52 33.86063 126.10117 38166 ft 462 kts 196°
2026-05-04 14:53 33.79748 126.09012 38169 ft 461 kts 196°
2026-05-04 14:53 33.73363 126.07896 38169 ft 460 kts 197°
2026-05-04 14:54 33.67068 126.06797 38168 ft 460 kts 197°
2026-05-04 14:54 33.60748 126.05695 38163 ft 459 kts 197°
2026-05-04 14:55 33.54428 126.04595 38160 ft 459 kts 197°
2026-05-04 14:55 33.48112 126.03498 38171 ft 458 kts 197°
2026-05-04 14:56 33.41807 126.02404 38169 ft 457 kts 197°
2026-05-04 14:56 33.35513 126.01314 38165 ft 457 kts 197°
2026-05-04 14:57 33.29218 126.00225 38169 ft 456 kts 197°
2026-05-04 14:57 33.22934 125.99138 38164 ft 456 kts 197°
2026-05-04 14:58 33.16660 125.98056 38167 ft 456 kts 197°
2026-05-04 14:58 33.10386 125.96976 38167 ft 455 kts 197°
2026-05-04 14:59 33.04111 125.95896 38162 ft 455 kts 197°
2026-05-04 15:00 32.94716 125.94282 38163 ft 455 kts 197°
2026-05-04 15:00 32.88457 125.93209 38164 ft 454 kts 197°
2026-05-04 15:01 32.79104 125.91609 38165 ft 454 kts 197°
2026-05-04 15:01 32.72836 125.90539 38164 ft 454 kts 197°
2026-05-04 15:02 32.66584 125.89473 38164 ft 453 kts 198°
2026-05-04 15:02 32.60337 125.88409 38168 ft 453 kts 198°
2026-05-04 15:03 32.54104 125.87349 38164 ft 452 kts 198°
2026-05-04 15:03 32.47871 125.86291 38164 ft 452 kts 198°
2026-05-04 15:04 32.41650 125.85236 38165 ft 451 kts 198°
2026-05-04 15:04 32.35431 125.84183 38163 ft 451 kts 198°
2026-05-04 15:05 32.29265 125.83140 38167 ft 450 kts 198°
2026-05-04 15:05 32.23067 125.82094 38172 ft 449 kts 198°
2026-05-04 15:06 32.16868 125.81048 38164 ft 449 kts 198°
2026-05-04 15:07 32.07579 125.79483 38165 ft 449 kts 198°
2026-05-04 15:07 32.02441 125.78595 38167 ft 446 kts 200°
2026-05-04 15:07 31.98521 125.77404 38170 ft 435 kts 207°
2026-05-04 15:08 31.95656 125.76278 38168 ft 433 kts 208°
2026-05-04 15:08 31.90894 125.74290 38168 ft 432 kts 209°
2026-05-04 15:09 31.85275 125.71897 38166 ft 432 kts 209°
2026-05-04 15:09 31.79611 125.69501 38164 ft 432 kts 209°
2026-05-04 15:10 31.71120 125.65944 38171 ft 432 kts 209°
2026-05-04 15:11 31.62636 125.62396 38167 ft 431 kts 209°
2026-05-04 15:11 31.56976 125.60028 38173 ft 431 kts 209°
2026-05-04 15:12 31.51316 125.57668 38177 ft 431 kts 209°
2026-05-04 15:12 31.45670 125.55306 38175 ft 431 kts 209°
2026-05-04 15:13 31.40023 125.52936 38178 ft 431 kts 209°
2026-05-04 15:13 31.34405 125.50584 38175 ft 431 kts 209°
2026-05-04 15:14 31.28760 125.48227 38175 ft 431 kts 209°
2026-05-04 15:14 31.23116 125.45875 38178 ft 430 kts 209°
2026-05-04 15:15 31.17475 125.43527 38180 ft 430 kts 209°
2026-05-04 15:15 31.11845 125.41187 38174 ft 429 kts 210°
2026-05-04 15:16 31.03445 125.37699 38176 ft 429 kts 210°
2026-05-04 15:17 30.95017 125.34206 38175 ft 429 kts 210°
2026-05-04 15:17 30.86586 125.30720 38172 ft 428 kts 210°
2026-05-04 15:18 30.80934 125.28387 38174 ft 428 kts 210°
2026-05-04 15:19 30.72546 125.24928 38185 ft 428 kts 210°
2026-05-04 15:19 30.64122 125.21461 38173 ft 427 kts 210°
2026-05-04 15:20 30.58517 125.19158 38174 ft 427 kts 210°
2026-05-04 15:20 30.52906 125.16856 38171 ft 427 kts 210°
2026-05-04 15:21 30.47341 125.14576 38175 ft 427 kts 210°
2026-05-04 15:22 30.39190 125.11244 38177 ft 426 kts 210°
2026-05-04 15:22 30.30794 125.07804 38176 ft 427 kts 210°
2026-05-04 15:23 30.25195 125.05517 38176 ft 427 kts 210°
2026-05-04 15:23 30.19584 125.03230 38173 ft 427 kts 210°
2026-05-04 15:24 30.08369 124.98667 38178 ft 427 kts 210°
2026-05-04 15:25 30.02787 124.96399 38179 ft 428 kts 210°
2026-05-04 15:26 29.94386 124.92928 38173 ft 426 kts 211°
2026-05-04 15:26 29.86062 124.89324 38176 ft 426 kts 211°
2026-05-04 15:27 29.77707 124.85746 38173 ft 427 kts 211°
2026-05-04 15:28 29.69375 124.82204 38176 ft 427 kts 211°
2026-05-04 15:29 29.61002 124.78650 38173 ft 428 kts 211°
2026-05-04 15:30 29.41445 124.70370 38175 ft 428 kts 211°
2026-05-04 15:31 29.33055 124.66829 38174 ft 428 kts 211°
2026-05-04 15:32 29.19072 124.60940 38171 ft 428 kts 211°
2026-05-04 15:34 29.05078 124.55064 38178 ft 428 kts 211°
2026-05-04 15:34 28.96720 124.51478 38178 ft 423 kts 214°
2026-05-04 15:35 28.91768 124.48170 38175 ft 411 kts 223°
2026-05-04 15:35 28.89411 124.46318 38176 ft 410 kts 223°
2026-05-04 15:36 28.82421 124.40662 38178 ft 410 kts 224°
2026-05-04 15:36 28.77766 124.36904 38173 ft 410 kts 223°
2026-05-04 15:37 28.73092 124.33152 38174 ft 411 kts 223°
2026-05-04 15:37 28.68443 124.29432 38175 ft 411 kts 223°
2026-05-04 15:38 28.63766 124.25693 38175 ft 411 kts 223°
2026-05-04 15:38 28.59085 124.21954 38173 ft 411 kts 223°
2026-05-04 15:39 28.54389 124.18208 38174 ft 411 kts 223°
2026-05-04 15:40 28.47355 124.12604 38176 ft 412 kts 223°
2026-05-04 15:40 28.42656 124.08865 38175 ft 412 kts 223°
2026-05-04 15:41 28.37960 124.05132 38172 ft 412 kts 223°
2026-05-04 15:41 28.33276 124.01431 38170 ft 414 kts 222°
2026-05-04 15:42 28.28099 123.98352 38184 ft 425 kts 214°
2026-05-04 15:42 28.22645 123.95696 38176 ft 427 kts 212°
2026-05-04 15:43 28.17148 123.93098 38175 ft 428 kts 212°
2026-05-04 15:43 28.11656 123.90493 38166 ft 428 kts 212°
2026-05-04 15:44 28.06159 123.87872 38174 ft 428 kts 213°
2026-05-04 15:44 28.00657 123.85244 38171 ft 429 kts 213°
2026-05-04 15:45 27.95158 123.82621 38171 ft 429 kts 212°
2026-05-04 15:45 27.89640 123.79992 38167 ft 430 kts 212°
2026-05-04 15:46 27.84164 123.77387 38164 ft 430 kts 212°
2026-05-04 15:46 27.78623 123.74754 38164 ft 431 kts 212°
2026-05-04 15:47 27.73093 123.72129 38165 ft 431 kts 212°
2026-05-04 15:47 27.67577 123.69514 38165 ft 432 kts 212°
2026-05-04 15:48 27.62110 123.66748 38163 ft 425 kts 218°
2026-05-04 15:48 27.54856 123.61220 38162 ft 418 kts 224°
2026-05-04 15:49 27.50144 123.57370 38164 ft 419 kts 224°
2026-05-04 15:49 27.45423 123.53520 38160 ft 419 kts 223°
2026-05-04 15:50 27.40684 123.49679 38165 ft 420 kts 223°
2026-05-04 15:50 27.35936 123.45844 38161 ft 420 kts 223°
2026-05-04 15:51 27.31207 123.42028 38161 ft 421 kts 223°
2026-05-04 15:51 27.26870 123.38531 38162 ft 421 kts 223°
2026-05-04 15:52 27.22106 123.34694 38162 ft 422 kts 223°
2026-05-04 15:52 27.17333 123.30854 38155 ft 422 kts 223°
2026-05-04 15:53 27.12550 123.27009 38154 ft 423 kts 223°
2026-05-04 15:53 27.07789 123.23186 38153 ft 423 kts 223°
2026-05-04 15:54 27.02990 123.19337 38158 ft 424 kts 223°
2026-05-04 15:54 26.98994 123.16136 38153 ft 424 kts 223°
2026-05-04 15:55 26.93371 123.11635 38157 ft 425 kts 223°
2026-05-04 15:55 26.89360 123.08429 38153 ft 426 kts 223°
2026-05-04 15:56 26.84843 123.04821 38151 ft 426 kts 223°
2026-05-04 15:56 26.80009 123.00965 38150 ft 426 kts 223°
2026-05-04 15:57 26.75199 122.97136 38156 ft 427 kts 223°
2026-05-04 15:57 26.70356 122.93292 38155 ft 427 kts 223°
2026-05-04 15:58 26.65497 122.89439 38156 ft 428 kts 222°
2026-05-04 15:58 26.60635 122.85587 38149 ft 429 kts 222°
2026-05-04 15:59 26.55772 122.81739 38151 ft 429 kts 222°
2026-05-04 15:59 26.50887 122.77883 38146 ft 429 kts 222°
2026-05-04 16:00 26.46017 122.74020 38154 ft 429 kts 222°
2026-05-04 16:00 26.41172 122.70178 38151 ft 430 kts 222°
2026-05-04 16:01 26.36278 122.66305 38143 ft 431 kts 222°
2026-05-04 16:01 26.31379 122.62436 38148 ft 431 kts 222°
2026-05-04 16:02 26.26476 122.58569 38144 ft 432 kts 222°
2026-05-04 16:03 26.20348 122.53741 38143 ft 432 kts 222°
2026-05-04 16:03 26.18777 122.52505 38130 ft 432 kts 222°
2026-05-04 16:04 26.18594 122.52361 38133 ft 432 kts 222°
2026-05-04 16:05 26.15821 122.50179 38147 ft 432 kts 222°
2026-05-04 16:06 26.11095 122.46477 38148 ft 432 kts 222°
2026-05-04 16:07 26.01249 122.38753 38141 ft 434 kts 222°
2026-05-04 16:08 25.96814 122.35282 38134 ft 434 kts 222°
2026-05-04 16:09 25.89850 122.29840 38138 ft 435 kts 222°
2026-05-04 16:10 25.83311 122.24737 38133 ft 436 kts 222°
2026-05-04 16:12 25.77597 122.20285 38132 ft 437 kts 222°
2026-05-04 16:13 25.68367 122.13102 38125 ft 438 kts 222°
2026-05-04 16:14 25.63097 122.09571 38125 ft 449 kts 212°
2026-05-04 16:14 25.57170 122.07691 38124 ft 468 kts 195°
2026-05-04 16:16 25.47294 122.07132 38126 ft 476 kts 190°
2026-05-04 16:17 25.38688 122.06879 38123 ft 476 kts 190°
2026-05-04 16:18 25.25894 122.06394 38126 ft 476 kts 191°
2026-05-04 16:19 25.10546 122.05784 38115 ft 476 kts 190°
2026-05-04 16:20 24.96665 122.05242 38118 ft 477 kts 190°
2026-05-04 16:22 24.80034 122.04594 38117 ft 479 kts 190°
2026-05-04 16:23 24.60064 122.03820 38117 ft 480 kts 189°
2026-05-04 16:25 24.41522 122.03105 38117 ft 480 kts 189°
2026-05-04 16:26 24.28606 122.00751 38113 ft 465 kts 203°
2026-05-04 16:26 24.19338 121.97696 38114 ft 465 kts 203°
2026-05-04 16:28 24.03836 121.92610 38112 ft 465 kts 203°
2026-05-04 16:29 23.82109 121.85555 38107 ft 467 kts 202°
2026-05-04 16:31 23.66929 121.80640 38110 ft 467 kts 202°
2026-05-04 16:32 23.48225 121.74585 38104 ft 468 kts 202°
2026-05-04 16:33 23.35727 121.70547 38102 ft 469 kts 202°
2026-05-04 16:34 23.26361 121.67527 38099 ft 469 kts 202°
2026-05-04 16:35 23.07533 121.61475 38095 ft 471 kts 202°
2026-05-04 16:36 22.98129 121.58461 38087 ft 472 kts 202°
2026-05-04 16:37 22.88651 121.55435 38084 ft 472 kts 202°
2026-05-04 16:38 22.76064 121.51412 38075 ft 473 kts 201°
2026-05-04 16:39 22.60547 121.45675 38073 ft 470 kts 207°
2026-05-04 16:40 22.48438 121.40334 38068 ft 470 kts 207°
2026-05-04 16:41 22.33232 121.33657 38066 ft 472 kts 206°
2026-05-04 16:43 22.18011 121.26995 38060 ft 473 kts 206°
2026-05-04 16:43 22.08877 121.23004 38057 ft 474 kts 206°
2026-05-04 16:45 21.90448 121.14977 38049 ft 476 kts 206°
2026-05-04 16:46 21.75139 121.08311 38045 ft 472 kts 207°
2026-05-04 16:47 21.63103 121.03087 38029 ft 464 kts 207°
2026-05-04 16:48 21.51139 120.97896 38027 ft 465 kts 207°
2026-05-04 16:49 21.39140 120.92705 38022 ft 466 kts 207°
2026-05-04 16:50 21.27107 120.87509 38016 ft 467 kts 206°
2026-05-04 16:51 21.18093 120.83622 38016 ft 467 kts 206°
2026-05-04 16:52 21.06033 120.78431 38012 ft 468 kts 206°
2026-05-04 16:53 20.96562 120.75569 38011 ft 479 kts 191°
2026-05-04 16:54 20.83226 120.74409 37999 ft 482 kts 189°
2026-05-04 16:55 20.65765 120.73011 37993 ft 483 kts 189°
2026-05-04 16:56 20.49269 120.71651 37989 ft 483 kts 189°
2026-05-04 16:57 20.42383 120.71085 37992 ft 483 kts 189°
2026-05-04 16:58 20.28990 120.69987 37987 ft 483 kts 189°
2026-05-04 17:00 20.08890 120.68341 37981 ft 483 kts 189°
2026-05-04 17:01 19.92561 120.67008 37975 ft 483 kts 189°
2026-05-04 17:02 19.79154 120.65915 37974 ft 484 kts 189°
2026-05-04 17:03 19.69082 120.65095 37973 ft 484 kts 189°
2026-05-04 17:03 19.58985 120.64275 37962 ft 485 kts 189°
2026-05-04 17:04 19.45610 120.63189 37968 ft 485 kts 189°
2026-05-04 17:05 19.32150 120.62096 37954 ft 485 kts 189°
2026-05-04 17:06 19.22054 120.61280 37960 ft 486 kts 189°
2026-05-04 17:07 19.13514 120.60590 37962 ft 486 kts 189°
2026-05-04 17:07 19.05702 120.59966 37949 ft 486 kts 189°
2026-05-04 17:08 18.95674 120.59154 37948 ft 486 kts 189°
2026-05-04 17:09 18.88917 120.58606 37933 ft 487 kts 189°
2026-05-04 17:09 18.82197 120.58064 37939 ft 487 kts 189°
2026-05-04 17:10 18.65288 120.56712 37922 ft 487 kts 189°
2026-05-04 17:11 18.58516 120.56163 37917 ft 487 kts 189°
2026-05-04 17:12 18.48391 120.55275 37916 ft 487 kts 189°
2026-05-04 17:13 18.31520 120.53912 37907 ft 488 kts 189°
2026-05-04 17:14 18.17948 120.53055 37904 ft 493 kts 181°
2026-05-04 17:15 18.07998 120.54592 37900 ft 497 kts 174°
2026-05-04 17:16 17.94796 120.57115 37903 ft 497 kts 174°
2026-05-04 17:17 17.81628 120.59571 37903 ft 497 kts 175°
2026-05-04 17:18 17.68080 120.62079 37919 ft 496 kts 174°
2026-05-04 17:19 17.54695 120.64541 37927 ft 496 kts 174°
2026-05-04 17:20 17.41109 120.67028 37942 ft 496 kts 174°
2026-05-04 17:20 17.30945 120.68895 37952 ft 496 kts 175°
2026-05-04 17:21 17.18555 120.71200 37971 ft 497 kts 174°
2026-05-04 17:22 17.11740 120.72469 37981 ft 497 kts 174°
2026-05-04 17:23 16.98163 120.74973 38001 ft 497 kts 174°
2026-05-04 17:24 16.87942 120.76853 38009 ft 497 kts 174°
2026-05-04 17:25 16.74364 120.79351 38025 ft 498 kts 174°
2026-05-04 17:26 16.60760 120.81854 38026 ft 498 kts 174°
2026-05-04 17:27 16.43696 120.84979 38017 ft 498 kts 174°
2026-05-04 17:28 16.30043 120.87475 38000 ft 497 kts 174°
2026-05-04 17:29 16.09807 120.91170 35715 ft 491 kts 173°
2026-05-04 17:30 15.99696 120.93009 33399 ft 499 kts 173°
2026-05-04 17:31 15.92830 120.94264 31709 ft 504 kts 172°
2026-05-04 17:31 15.82380 120.96167 29119 ft 509 kts 171°
2026-05-04 17:32 15.75468 120.97429 27769 ft 500 kts 171°
2026-05-04 17:33 15.65759 120.99228 27274 ft 451 kts 171°
2026-05-04 17:33 15.62699 120.99792 27097 ft 440 kts 171°
2026-05-04 17:34 15.53998 121.01348 26522 ft 410 kts 171°
2026-05-04 17:34 15.51219 121.01859 26355 ft 400 kts 171°
2026-05-04 17:35 15.43351 121.00582 25433 ft 382 kts 201°
2026-05-04 17:35 15.38427 120.98603 24711 ft 377 kts 201°
2026-05-04 17:35 15.36012 120.97645 24345 ft 374 kts 201°
2026-05-04 17:36 15.33583 120.96686 23989 ft 372 kts 201°
2026-05-04 17:36 15.31172 120.95737 23631 ft 370 kts 200°
2026-05-04 17:36 15.28764 120.94790 23212 ft 367 kts 201°
2026-05-04 17:36 15.26411 120.93852 22428 ft 359 kts 201°
2026-05-04 17:37 15.24099 120.92923 21732 ft 351 kts 201°
2026-05-04 17:37 15.21843 120.92036 21348 ft 345 kts 200°
2026-05-04 17:37 15.19604 120.91165 20968 ft 343 kts 201°
2026-05-04 17:37 15.17399 120.90297 20597 ft 341 kts 200°
2026-05-04 17:38 15.15168 120.89435 20212 ft 339 kts 200°
2026-05-04 17:38 15.12972 120.88584 19845 ft 337 kts 200°
2026-05-04 17:38 15.10775 120.87728 19471 ft 336 kts 200°
2026-05-04 17:38 15.08593 120.86877 19099 ft 334 kts 200°
2026-05-04 17:39 15.04253 120.85180 18341 ft 332 kts 200°
2026-05-04 17:39 15.02114 120.84343 17945 ft 331 kts 200°
2026-05-04 17:39 14.99970 120.83505 17552 ft 329 kts 200°
2026-05-04 17:40 14.97852 120.82676 17184 ft 326 kts 200°
2026-05-04 17:40 14.95734 120.81848 16813 ft 324 kts 200°
2026-05-04 17:40 14.93633 120.81029 16423 ft 322 kts 199°
2026-05-04 17:40 14.91544 120.80218 16045 ft 321 kts 200°
2026-05-04 17:41 14.89465 120.79405 15659 ft 319 kts 200°
2026-05-04 17:41 14.87395 120.78595 15290 ft 317 kts 200°
2026-05-04 17:41 14.85336 120.77791 14920 ft 315 kts 200°
2026-05-04 17:41 14.83291 120.76993 14566 ft 313 kts 200°
2026-05-04 17:42 14.81252 120.76197 14203 ft 312 kts 200°
2026-05-04 17:42 14.79225 120.75407 13850 ft 310 kts 200°
2026-05-04 17:42 14.77229 120.74629 13463 ft 309 kts 200°
2026-05-04 17:42 14.75285 120.73871 13107 ft 306 kts 199°
2026-05-04 17:43 14.73304 120.73098 12752 ft 303 kts 199°
2026-05-04 17:43 14.71338 120.72331 12408 ft 301 kts 199°
2026-05-04 17:43 14.69401 120.71577 12152 ft 294 kts 199°
2026-05-04 17:43 14.67616 120.70881 12021 ft 285 kts 199°
2026-05-04 17:44 14.65775 120.70163 11845 ft 277 kts 198°
2026-05-04 17:44 14.63979 120.69466 11558 ft 274 kts 198°
2026-05-04 17:44 14.62148 120.69003 11235 ft 268 kts 180°
2026-05-04 17:44 14.60566 120.69235 10975 ft 260 kts 156°
2026-05-04 17:45 14.59030 120.70010 10697 ft 255 kts 147°
2026-05-04 17:45 14.57501 120.70927 10405 ft 253 kts 147°
2026-05-04 17:45 14.56017 120.71817 10128 ft 252 kts 147°
2026-05-04 17:45 14.54533 120.72692 9937 ft 243 kts 148°
2026-05-04 17:46 14.52944 120.73285 9821 ft 247 kts 169°
2026-05-04 17:46 14.51233 120.73026 9562 ft 256 kts 203°
2026-05-04 17:46 14.49902 120.71810 9273 ft 260 kts 234°
2026-05-04 17:46 14.48976 120.70197 8961 ft 262 kts 240°
2026-05-04 17:47 14.48104 120.68545 8658 ft 262 kts 240°
2026-05-04 17:47 14.47222 120.66902 8342 ft 261 kts 239°
2026-05-04 17:47 14.46934 120.66372 8230 ft 261 kts 239°
2026-05-04 17:48 14.45971 120.64690 7895 ft 258 kts 233°
2026-05-04 17:48 14.44637 120.63525 7639 ft 248 kts 199°
2026-05-04 17:48 14.43005 120.63334 7382 ft 237 kts 165°
2026-05-04 17:48 14.41502 120.63965 7134 ft 233 kts 148°
2026-05-04 17:49 14.40102 120.64798 6878 ft 233 kts 147°
2026-05-04 17:49 14.38706 120.65641 6635 ft 233 kts 148°
2026-05-04 17:49 14.37304 120.66477 6376 ft 232 kts 148°
2026-05-04 17:49 14.35908 120.67303 6118 ft 232 kts 148°
2026-05-04 17:50 14.34594 120.68239 5854 ft 228 kts 134°
2026-05-04 17:50 14.33790 120.69610 5611 ft 224 kts 104°
2026-05-04 17:50 14.33791 120.71185 5356 ft 221 kts 75°
2026-05-04 17:50 14.34431 120.72630 5116 ft 222 kts 62°
2026-05-04 17:51 14.35214 120.73998 4852 ft 221 kts 61°
2026-05-04 17:51 14.36004 120.75354 4590 ft 220 kts 61°
2026-05-04 17:51 14.36884 120.76636 4341 ft 220 kts 50°
2026-05-04 17:51 14.37816 120.77877 4085 ft 218 kts 59°
2026-05-04 17:52 14.38585 120.79210 3833 ft 215 kts 63°
2026-05-04 17:52 14.39313 120.80550 3618 ft 215 kts 63°
2026-05-04 17:52 14.40034 120.81897 3382 ft 214 kts 63°
2026-05-04 17:52 14.40753 120.83236 3148 ft 213 kts 63°
2026-05-04 17:53 14.41474 120.84565 2921 ft 212 kts 62°
2026-05-04 17:53 14.42171 120.85851 2798 ft 202 kts 62°
2026-05-04 17:53 14.42832 120.87068 2713 ft 186 kts 62°
2026-05-04 17:53 14.43418 120.88157 2683 ft 162 kts 63°
2026-05-04 17:54 14.43948 120.89144 2448 ft 153 kts 62°
2026-05-04 17:54 14.44454 120.90082 2232 ft 145 kts 62°
2026-05-04 17:54 14.44920 120.90949 2050 ft 137 kts 62°
2026-05-04 17:54 14.45358 120.91762 1892 ft 137 kts 63°
2026-05-04 17:55 14.45819 120.92618 1708 ft 137 kts 62°
2026-05-04 17:55 14.46282 120.93479 1532 ft 137 kts 62°
2026-05-04 17:55 14.46746 120.94341 1352 ft 137 kts 62°
2026-05-04 17:55 14.47208 120.95199 1175 ft 136 kts 62°
2026-05-04 17:56 14.47671 120.96061 1005 ft 137 kts 62°
2026-05-04 17:56 14.48094 120.96850 842 ft 137 kts 62°
2026-05-04 17:56 14.48546 120.97733 678 ft 137 kts 63°
2026-05-04 17:56 14.49012 120.98596 507 ft 139 kts 61°
2026-05-04 17:57 14.49479 120.99421 306 ft 140 kts 62°
2026-05-04 17:57 14.49957 121.00301 116 ft 138 kts 62°
2026-05-04 17:57 14.50412 121.01131 66 ft 123 kts 62°
2026-05-04 17:57 14.50716 121.01682 66 ft 54 kts 60°
2026-05-04 17:58 14.50866 121.01953 65 ft 42 kts 60°
2026-05-04 17:58 14.51002 121.02187 70 ft 35 kts 51°
2026-05-04 17:58 14.51166 121.02295 68 ft 16 kts 350°
2026-05-04 17:58 14.51185 121.02270 74 ft 3 kts 265°
2026-05-04 17:59 14.51178 121.02239 72 ft 6 kts 251°
2026-05-04 17:59 14.51153 121.02189 67 ft 10 kts 241°
2026-05-04 17:59 14.51064 121.02027 64 ft 16 kts 240°
2026-05-04 18:00 14.51002 121.01919 67 ft 19 kts 240°
2026-05-04 18:00 14.50933 121.01795 66 ft 22 kts 240°
2026-05-04 18:00 14.50855 121.01654 67 ft 24 kts 240°
2026-05-04 18:00 14.50768 121.01498 64 ft 26 kts 240°
2026-05-04 18:01 14.50674 121.01329 67 ft 28 kts 240°
2026-05-04 18:01 14.50589 121.01177 64 ft 29 kts 240°
2026-05-04 18:01 14.50486 121.00991 64 ft 29 kts 241°
2026-05-04 18:02 14.50429 121.00869 66 ft 9 kts 268°
2026-05-04 18:02 14.50470 121.00827 65 ft 9 kts 334°
2026-05-04 18:02 14.50497 121.00770 66 ft 8 kts 276°
2026-05-04 18:02 14.50502 121.00729 69 ft 1 kts 277°
2026-05-04 18:03 14.50502 121.00726 69 ft 0 kts 277°
2026-05-04 18:03 14.50502 121.00723 69 ft 0 kts 277°